カタログに戻る

STARLINK-33621

運用中通信VLEO
NORAD 63375·PAYLOAD·🇺🇸 United States

打ち上げ Mar 26, 2025 から Vandenberg Space Force Base

Loading…

次のパス (今後24時間)

TLE

最新Source: CelesTrak SupGP

元期: Sep 15, 2026, 02:25 UTC

1 63375C 25063N   26258.10118056 -.00028463  00000+0 -84088-3 0  2588
2 63375  53.1577 246.7185 0001364  87.9271 250.3151 15.34407134    15

AllMySatでSTARLINK-33621をリアルタイム追跡

Download on the App Store